Vorticity
17 8 -5 23 22 45 13 20 21 15 0 5 5 6 7 8 6 6 7 8 3 3
11 22 -16 -21 29 3 3 12 5 13 4 3 6 4 5 6 5 7 7 5 8 5
5 5 27 -18 -3 7 -16 2 -7 20 12 12 4 6 4 5 5 7 9 4 7 4
41 -1 16 18 16 -45 24 16 10 -7 -22 13 8 6 5 5 4 5 5 9 6 4
-11 17 -7 19 20 44 -18 23 4 12 34 6 1 2 7 4 5 5 5 10 4 2
33 13 9 -2 18 14 18 39 25 10 21 -13 17 16 10 5 2 5 4 9 4 -3
-7 17 33 17 8 10 9 -37 -25 -27 -11 17 19 22 6 6 3 2 5 9 4 7
-6 16 7 10 9 26 -5 9 33 9 -18 15 8 23 3 7 11 3 4 7 9 6
34 -2 14 15 6 -1 24 34 7 19 6 -18 10 18 24 13 20 10 10 1 11 12
45 30 10 13 3 14 4 7 22 12 4 6 -4 4 -36 15 10 20 16 0 2 6
9 47 31 5 17 9 6 12 20 26 17 -7 23 8 0 5 23 8 15 18 15 6
17 32 29 44 6 4 -6 -6 -4 9 5 13 11 22 17 3 33 12 15 4 7 5
29 23 35 18 44 11 23 4 12 13 17 23 8 -25 6 8 -1 4 20 -2 8 8
20 22 24 33 21 17 16 34 21 24 11 16 -1 7 -4 -18 4 11 10 -4 23 2
Height
5552 5566 5579 5588 5599 5611 5618 5627 5634 5643 5650 5659 5667 5673 5679 5685 5692 5698 5704 5708 5713 5718
5534 5547 5560 5568 5580 5594 5603 5611 5619 5629 5637 5646 5653 5660 5666 5673 5681 5687 5693 5699 5704 5709
5515 5529 5541 5550 5564 5577 5588 5597 5606 5613 5621 5631 5640 5647 5654 5660 5668 5675 5681 5688 5693 5697
5497 5508 5523 5536 5548 5558 5569 5580 5592 5596 5606 5615 5625 5634 5641 5648 5655 5663 5669 5676 5682 5687
5480 5491 5503 5518 5528 5540 5552 5565 5574 5583 5590 5600 5609 5619 5627 5635 5644 5649 5658 5664 5670 5677
5459 5476 5486 5497 5510 5522 5533 5547 5556 5567 5575 5585 5593 5602 5612 5622 5630 5637 5645 5653 5659 5666
5445 5456 5470 5481 5492 5503 5517 5527 5537 5549 5560 5570 5578 5588 5597 5607 5616 5623 5632 5639 5647 5654
5430 5442 5451 5464 5475 5486 5497 5509 5520 5532 5544 5556 5564 5573 5583 5593 5602 5611 5619 5627 5634 5642
5414 5426 5438 5447 5457 5469 5480 5492 5506 5516 5527 5541 5552 5560 5570 5578 5588 5598 5605 5613 5621 5629
5398 5410 5422 5434 5444 5453 5464 5475 5489 5500 5511 5521 5535 5546 5555 5564 5574 5582 5592 5601 5606 5614
5386 5394 5405 5418 5430 5438 5447 5458 5473 5485 5497 5508 5518 5530 5539 5551 5558 5567 5576 5585 5593 5601
5375 5381 5388 5400 5415 5425 5433 5444 5455 5469 5481 5492 5503 5513 5525 5536 5542 5551 5562 5570 5578 5586
5365 5370 5376 5384 5397 5409 5419 5428 5439 5451 5464 5476 5486 5495 5508 5517 5525 5536 5547 5556 5563 5571
5356 5361 5365 5371 5381 5393 5404 5413 5424 5437 5448 5459 5472 5478 5489 5500 5510 5519 5530 5539 5548 5556